User: anonymous
Location: Unspecified
(0.0000°N, 0.0000°E)
Time: 06:19:43
(UTC+02:00)
Language:

H-2A R/B - Orbit

View from above orbital plane
View from above orbital plane
View from above satellite
View from above satellite

Ground track
Ground track

The orbit data is extracted from the following two-line orbital elements,

1 26899U 01038B   14264.29667197  .00000981  00000-0  59488-3 0   479
2 26899 028.0324 108.9653 7146158 250.1812 348.2431 02.43834908111872
Epoch (UTC): 21 September 2014 07:07:12
Eccentricity: 0.7146158
inclination: 28.0324°
perigee height: 276 km
apogee height: 33601 km
right ascension of ascending node: 108.9653°
argument of perigee: 250.1812°
revolutions per day: 2.43834908
mean anomaly at epoch: 348.2431°
orbit number at epoch: 11187

The dashed part of the orbit path shows where the satellite is in the earth's shadow,  

DLR